EW0362 Weather Reports


time (UTC)temp
C
wind
direction
speed
KPH
gust
KPH
rain 1hr
cm
rain 24hr
cm
rain mn
cm
humidity
%
barometer
mb
20260905232704 18 56 0.0 0.0 0.00 0.00 0.00 91 1012.0
20260905232204 18 56 0.0 0.0 0.00 0.00 0.00 91 1012.0
20260905231705 18 56 0.0 0.0 0.00 0.00 0.00 91 1011.9
20260905230704 18 56 0.0 0.0 0.00 0.00 0.00 90 1011.9
20260905230205 18 56 0.0 0.0 0.00 0.00 0.00 90 1011.9
20260905224705 18 56 0.0 0.0 0.00 0.00 0.00 90 1011.7
20260905223704 18 56 0.0 0.0 0.00 0.00 0.00 90 1011.7
20260905220705 18 53 0.0 0.0 0.00 0.00 0.00 89 1011.6
20260905215706 18 53 1.6 4.8 0.00 0.00 0.00 87 1011.4
20260905214204 18 83 0.0 1.6 0.00 0.00 0.00 88 1011.1
20260905211705 18 35 0.0 3.2 0.00 0.00 0.00 89 1010.8
20260905211205 18 51 1.6 8.0 0.00 0.00 0.00 88 1010.8
20260905210705 18 17 0.0 0.0 0.00 0.00 0.00 89 1010.7
20260905210205 18 17 1.6 3.2 0.00 0.00 0.00 88 1010.7
20260905205205 19 70 1.6 4.8 0.00 0.00 0.00 87 1010.7
20260905204205 19 230 0.0 3.2 0.00 0.00 0.00 86 1010.7
20260905203705 20 45 1.6 12.9 0.00 0.00 0.00 84 1010.7
20260905202204 20 119 1.6 4.8 0.00 0.00 0.00 80 1010.8
20260905200704 22 45 3.2 19.3 0.00 0.00 0.00 77 1010.3
20260905195707 22 340 1.6 3.2 0.00 0.00 0.00 80 1009.9
20260905193204 22 59 0.0 1.6 0.00 0.00 0.00 77 1009.8
20260905192705 22 56 3.2 8.0 0.00 0.00 0.00 74 1009.8
20260905192204 22 25 1.6 4.8 0.00 0.00 0.00 74 1009.8
20260905191205 22 65 1.6 4.8 0.00 0.00 0.00 78 1009.7
20260905184204 22 67 0.0 0.0 0.00 0.00 0.00 79 1009.8
20260905182704 22 130 1.6 3.2 0.00 0.00 0.00 76 1009.8
20260905181205 22 110 1.6 11.3 0.00 0.00 0.00 75 1009.8
20260905180205 22 69 1.6 3.2 0.00 0.00 0.00 75 1009.9
20260905175204 22 227 1.6 4.8 0.00 0.00 0.00 75 1009.9
20260905174704 22 209 0.0 4.8 0.00 0.00 0.00 75 1009.8
20260905171704 22 52 0.0 8.0 0.00 0.00 0.00 76 1009.6
20260905170705 22 264 0.0 3.2 0.00 0.00 0.00 74 1009.5
20260905170204 22 338 1.6 4.8 0.00 0.00 0.00 73 1009.6
20260905165204 22 22 1.6 8.0 0.00 0.00 0.00 76 1009.6
20260905164204 22 245 1.6 8.0 0.00 0.00 0.00 75 1009.5
20260905163704 22 43 1.6 4.8 0.00 0.00 0.00 77 1009.6
20260905162704 22 74 1.6 11.3 0.00 0.00 0.00 76 1009.6
20260905162205 21 251 1.6 3.2 0.00 0.00 0.00 78 1009.7
20260905161204 21 80 0.0 3.2 0.00 0.00 0.00 80 1009.8
20260905154705 21 62 1.6 3.2 0.00 0.00 0.00 79 1009.8
20260905153704 21 39 0.0 4.8 0.00 0.00 0.00 81 1009.8
20260905152704 21 84 1.6 8.0 0.00 0.00 0.00 82 1009.9
20260905152205 21 151 0.0 3.2 0.00 0.00 0.00 82 1009.9
20260905151204 21 64 0.0 3.2 0.00 0.00 0.00 85 1009.8
20260905144704 20 84 0.0 1.6 0.00 0.00 0.00 85 1010.0
20260905143205 20 84 0.0 0.0 0.00 0.00 0.00 84 1010.0
20260905142204 20 84 1.6 3.2 0.00 0.00 0.00 85 1010.0
20260905135204 20 133 0.0 3.2 0.00 0.00 0.00 89 1009.9
20260905134704 20 78 0.0 3.2 0.00 0.00 0.00 87 1009.9
20260905133204 19 54 0.0 3.2 0.00 0.00 0.00 88 1009.8
20260905132705 19 46 0.0 1.6 0.00 0.00 0.00 89 1009.7
20260905131704 18 39 0.0 0.0 0.00 0.00 0.00 91 1009.6
20260905130704 18 77 0.0 0.0 0.00 0.00 0.00 92 1009.5
20260905124704 18 267 0.0 0.0 0.00 0.00 0.00 95 1009.4
20260905124204 17 267 0.0 1.6 0.00 0.00 0.00 95 1009.4
20260905123705 17 267 0.0 3.2 0.00 0.00 0.00 95 1009.3
20260905123204 17 10 0.0 3.2 0.00 0.00 0.00 95 1009.3
20260905122704 17 65 0.0 3.2 0.00 0.00 0.00 95 1009.2
20260905121704 17 64 0.0 3.2 0.00 0.00 0.00 97 1009.0
20260905120704 16 337 0.0 1.6 0.00 0.00 0.00 98 1009.1
20260905120204 16 337 0.0 0.0 0.00 0.00 0.00 98 1009.0
20260905113704 16 81 0.0 0.0 0.00 0.00 0.00 98 1008.9
20260905113204 16 81 0.0 0.0 0.00 0.00 0.00 97 1008.9
20260905112704 16 81 0.0 0.0 0.00 0.00 0.00 97 1008.9
20260905111704 15 81 0.0 0.0 0.00 0.00 0.00 97 1008.9
20260905111204 15 81 0.0 0.0 0.00 0.00 0.00 97 1008.9
20260905105704 15 81 0.0 0.0 0.00 0.00 0.00 96 1008.7
20260905105204 15 81 0.0 0.0 0.00 0.00 0.00 96 1008.7
20260905103204 15 81 0.0 0.0 0.00 0.00 0.00 96 1008.7
20260905102704 15 80 0.0 0.0 0.00 0.00 0.00 96 1008.6
20260905102204 15 81 0.0 0.0 0.00 0.00 0.00 96 1008.5
20260905101704 15 80 0.0 0.0 0.00 0.00 0.00 96 1008.5
20260905101204 15 81 0.0 0.0 0.00 0.00 0.00 96 1008.4
20260905100204 15 80 0.0 0.0 0.00 0.00 0.00 96 1008.4
20260905095704 15 81 0.0 0.0 0.00 0.00 0.00 96 1008.4
20260905095204 15 81 0.0 0.0 0.00 0.00 0.00 96 1008.3
20260905094704 15 81 0.0 0.0 0.00 0.00 0.00 96 1008.3
20260905094204 15 81 0.0 0.0 0.00 0.00 0.00 96 1008.3
20260905093704 15 81 0.0 0.0 0.00 0.00 0.00 96 1008.3
20260905091704 15 80 0.0 0.0 0.00 0.00 0.00 95 1008.2
20260905090204 15 81 0.0 0.0 0.00 0.00 0.00 95 1008.2
20260905085703 15 80 0.0 0.0 0.00 0.00 0.00 95 1008.1
20260905083204 15 80 0.0 0.0 0.00 0.00 0.00 95 1008.0
20260905082704 15 80 0.0 0.0 0.00 0.00 0.00 95 1008.0
20260905082204 15 80 0.0 0.0 0.00 0.00 0.00 94 1008.0
20260905081204 15 81 0.0 0.0 0.00 0.00 0.00 95 1008.0
20260905080204 15 81 0.0 0.0 0.00 0.00 0.00 94 1008.0
20260905072204 15 80 0.0 0.0 0.00 0.00 0.00 94 1008.1
20260905071704 15 81 0.0 0.0 0.00 0.00 0.00 94 1008.2
20260905070204 15 81 0.0 0.0 0.00 0.00 0.00 94 1008.3
20260905064204 16 80 0.0 0.0 0.00 0.00 0.00 94 1008.4
20260905063203 16 80 0.0 0.0 0.00 0.00 0.00 94 1008.5
20260905062204 16 81 0.0 0.0 0.00 0.00 0.00 94 1008.4
20260905061704 16 80 0.0 0.0 0.00 0.00 0.00 94 1008.5
20260905060204 16 80 0.0 0.0 0.00 0.00 0.00 94 1008.7
20260905055703 16 81 0.0 0.0 0.00 0.00 0.00 94 1008.7
20260905054204 16 81 0.0 0.0 0.00 0.00 0.00 94 1008.6
20260905053704 16 81 0.0 0.0 0.00 0.00 0.00 94 1008.6
20260905052704 16 81 0.0 0.0 0.00 0.00 0.00 93 1008.6
20260905052203 16 80 0.0 0.0 0.00 0.00 0.00 93 1008.6
20260905051204 16 81 0.0 0.0 0.00 0.00 0.00 93 1008.7
20260905045204 16 80 0.0 0.0 0.00 0.00 0.00 93 1008.6
20260905044704 16 81 0.0 0.0 0.00 0.00 0.00 92 1008.6
20260905044204 16 81 0.0 0.0 0.00 0.00 0.00 93 1008.5
20260905043704 16 80 0.0 0.0 0.00 0.00 0.00 93 1008.5
20260905043203 16 81 0.0 0.0 0.00 0.00 0.00 92 1008.5
20260905042704 16 81 0.0 0.0 0.00 0.00 0.00 92 1008.5
20260905041704 16 81 0.0 0.0 0.00 0.00 0.00 92 1008.8
20260905040703 17 80 0.0 0.0 0.00 0.00 0.00 92 1008.7
20260905035703 17 81 0.0 0.0 0.00 0.00 0.00 91 1008.6
20260905034703 17 81 0.0 0.0 0.00 0.00 0.00 91 1008.5
20260905034204 17 81 0.0 0.0 0.00 0.00 0.00 91 1008.6
20260905033203 17 80 0.0 0.0 0.00 0.00 0.00 91 1008.7
20260905032204 17 81 0.0 0.0 0.00 0.00 0.00 90 1008.6
20260905031703 17 81 0.0 0.0 0.00 0.00 0.00 90 1008.6
20260905031204 17 81 0.0 0.0 0.00 0.00 0.00 90 1008.6
20260905030703 17 81 0.0 0.0 0.00 0.00 0.00 90 1008.7
20260905025703 17 81 0.0 0.0 0.00 0.00 0.00 90 1008.9
20260905024203 17 81 0.0 0.0 0.00 0.00 0.00 89 1008.9
20260905023704 17 81 0.0 0.0 0.00 0.00 0.00 89 1008.9
20260905021704 18 81 0.0 0.0 0.00 0.03 0.00 88 1008.9
20260905020703 18 80 0.0 0.0 0.00 0.03 0.00 87 1009.0
20260905015703 18 80 0.0 0.0 0.00 0.03 0.00 87 1009.0
20260905015204 18 81 0.0 0.0 0.00 0.03 0.00 87 1009.0
20260905014704 18 81 0.0 0.0 0.00 0.03 0.00 87 1009.0
20260905013703 18 80 0.0 0.0 0.00 0.03 0.00 86 1009.0
20260905013204 18 81 0.0 0.0 0.00 0.03 0.00 88 1009.1
20260905011204 19 81 0.0 0.0 0.00 0.03 0.00 86 1009.1
20260905005705 20 81 0.0 0.0 0.00 0.03 0.00 84 1009.1
20260905005205 20 81 0.0 0.0 0.00 0.03 0.00 83 1009.0
20260905004205 20 81 0.0 0.0 0.00 0.03 0.00 84 1008.9
20260905002704 20 80 0.0 0.0 0.00 0.03 0.00 81 1008.9
20260905002205 20 81 0.0 0.0 0.00 0.03 0.00 81 1008.9
20260905001204 21 81 0.0 0.0 0.00 0.03 0.00 81 1008.8
20260904233205 22 80 0.0 3.2 0.00 0.03 0.00 80 1008.3